STARLINK-30534

operational
NORAD ID: 57992 Int'l Des: 2023-153 Owner: SPXS Country: US Constellation: starlink
LEOCIRCULAR

Über STARLINK-30534

Beschreibung wird geladen...

Live-Position

3D-Globus wird geladen...

Nächste Überflüge

Höhenverlauf

Altitude vs Time

uPlot chart will show altitude changes over time

Zweizeiliger Elementsatz

1 57992U 23153B 25251.29463828 -.00000994 00000-0 -58515-4 0 9995
2 57992 43.0041 340.3283 0001533 269.7039 90.3628 15.02533341107336
Epoch: 8. Sept. 2025 • Age: 27 hours

Aktueller Status

Höhe 558.4 km
Geschwindigkeit 7.59 km/s
Subsatellitenpunkt 14.50°N, 152.89°W
Startdatum 5. Okt. 2023
Alter 1.9 years
Typ internet

Technische Details

Klassifizierung Payload
Masse 730.00 kg
Trockenmasse 700.00 kg
Gesamtmasse 730.00 kg
Länge 0.30 m
Durchmesser 4.10 m
Spannweite 29.00 m
Form Box + pan
Hersteller SPXS
Bus-Typ Starlink V2M
Phasenstatus In Orbit
Besitzer/Staat SPXS/US

Große Konstellationen

Loading constellations...